Lid_Strength_Index
-2 -2 -2 -2 -2 -2 -2 -2 -2 -2 -2 -1 -1 -1 -1 -1 -1 1 4 3 1 -1 0 3 3 3 3 6 8 8 13 13 11 11 10 10 11 9 9 7 6 6 6 4 3
-2 -2 -2 -2 -2 -2 -2 -2 -2 -1 -2 -2 -1 -1 -1 -1 2 4 1 -0 -0 -1 3 4 5 4 6 6 6 11 13 11 9 10 12 11 11 11 9 8 8 7 4 3 3
-2 -2 -2 -2 -2 -2 -1 -1 -2 -2 -2 -2 -1 -1 -1 0 5 5 -1 -1 -2 -1 3 3 4 5 7 6 7 9 12 9 9 11 11 11 12 11 10 11 9 8 6 4 4
-2 -2 -2 -2 -2 -2 -2 -0 -1 -2 -1 -1 -1 -1 -1 1 13 2 -1 -1 -2 -0 3 4 5 7 9 10 7 11 9 8 8 9 10 12 11 12 11 11 10 5 4 4 5
-2 -2 -2 -2 -2 -2 -2 -1 -1 -1 -1 -1 -1 -1 1 5 6 1 -1 -0 1 1 4 6 6 7 10 9 9 10 8 8 7 7 10 10 11 12 12 10 7 5 4 5 5
-2 -2 -2 -2 -2 -2 -2 -1 -1 -1 -1 -1 -1 -1 3 9 1 -0 1 2 1 2 4 6 7 7 8 9 9 8 8 8 8 8 8 11 12 11 11 10 8 5 5 5 5
-2 -2 -2 -2 -2 -2 -2 -2 -2 -1 -1 -1 -1 0 4 6 1 0 1 2 3 2 4 4 5 8 9 11 7 8 10 9 9 10 9 9 11 12 10 10 10 10 6 5 4
-2 -2 -2 -2 -2 -2 -2 -2 -1 -1 -1 -1 -1 1 6 1 1 2 1 2 1 1 2 3 5 9 10 10 11 11 11 14 10 10 10 9 13 10 10 11 11 11 11 7 5
-1 -2 -2 -2 -2 -2 -2 -2 -1 -1 -2 -1 2 3 7 -0 3 1 2 3 2 1 1 2 5 10 11 13 14 13 16 16 14 9 10 11 12 8 8 10 11 11 11 11 10
-2 -1 -1 -1 -1 -2 -2 -1 -1 0 -0 0 2 6 4 6 3 2 2 2 3 4 5 5 8 11 13 14 18 17 17 15 15 13 11 12 13 10 10 10 11 12 12 11 11
-2 -2 -1 -1 -1 -1 -0 2 5 5 3 6 7 6 5 2 1 3 2 3 3 5 11 8 11 14 13 13 14 14 15 16 14 14 15 14 13 12 11 12 13 13 12 12 12
-1 -1 -1 -1 -1 -1 0 4 4 4 8 4 5 4 3 2 6 4 2 7 8 10 9 11 13 10 9 11 13 14 16 17 15 14 15 16 16 13 13 13 11 11 12 12 12
-1 -1 -1 -1 -1 1 3 3 -0 1 9 7 5 6 5 4 7 6 4 6 9 11 10 13 11 8 9 11 12 13 15 16 16 15 16 18 19 17 14 14 13 12 11 11 11
-1 -1 -1 -1 2 3 4 1 0 2 17 11 8 6 4 4 8 3 3 6 8 11 10 11 8 10 11 11 11 14 11 12 14 17 21 18 23 19 16 15 14 13 12 12 12
-1 -1 -1 -1 3 4 2 1 1 7 25 11 8 3 4 7 7 7 3 6 10 10 10 12 11 11 12 11 9 12 10 11 13 17 19 21 22 20 17 17 16 15 14 13 12
-1 -1 -1 1 3 2 1 2 6 18 27 12 8 9 9 8 7 6 6 5 6 9 10 10 9 9 10 9 9 8 11 12 13 16 22 20 21 21 19 16 16 14 13 13 13
-1 -2 -0 1 5 1 2 7 18 23 14 15 12 10 10 11 10 9 10 11 13 15 15 12 11 9 9 11 9 10 14 19 21 23 23 18 20 19 16 15 15 14 14 14 14
-1 -1 -0 1 2 2 6 14 25 23 22 10 10 10 13 10 10 10 11 13 11 12 14 16 19 11 9 11 13 12 13 18 23 23 20 16 20 18 13 12 12 13 13 14 15
-1 1 2 2 2 5 12 22 21 19 11 11 10 15 13 11 11 11 13 13 10 11 16 16 16 10 9 9 9 13 15 13 16 21 21 17 17 14 12 12 12 12 13 15 15
3 3 3 2 4 7 15 17 19 10 9 10 16 12 19 14 13 12 13 10 11 9 9 12 16 12 10 9 9 11 10 16 17 25 25 19 18 18 14 12 11 12 14 14 15
4 7 3 3 5 12 19 20 14 9 8 12 13 15 12 14 12 13 13 11 10 10 8 11 15 13 11 13 14 12 14 13 14 17 21 22 19 13 12 12 11 12 12 14 14
7 10 3 4 14 14 15 17 8 10 9 8 9 11 13 12 15 13 14 13 10 10 12 10 13 16 14 10 10 11 13 13 18 21 18 17 18 11 12 11 11 13 13 14 15
8 8 3 6 18 15 13 14 9 11 9 10 10 9 9 12 14 12 12 10 10 9 11 10 16 21 17 14 11 13 12 12 12 13 18 20 19 11 11 12 12 13 14 14 15
8 12 9 8 10 13 13 15 14 9 9 9 9 9 10 12 11 13 12 10 9 9 7 8 13 19 20 17 14 14 13 12 13 17 16 16 16 13 12 12 12 13 14 15 15
8 11 10 14 13 13 11 11 12 13 9 9 10 11 11 13 13 15 11 10 9 8 9 12 18 14 15 14 13 15 14 13 14 17 17 17 16 13 12 11 11 12 13 14 15
10 10 8 13 11 10 10 13 11 12 11 11 12 11 11 16 12 13 11 12 12 10 10 11 20 17 20 13 13 17 14 14 16 16 15 16 16 11 11 11 12 12 13 14 15
7 7 8 9 9 13 14 11 11 10 10 10 10 11 12 12 11 10 10 10 10 11 12 14 19 22 23 17 18 21 16 13 13 13 15 19 14 11 10 11 11 12 12 13 14